User: anonymous   Login
Location: Frizzleburg
(41.0764°N, 80.4548°W)
Time: 02:24:57
(UTC+00:00)
Language:

Cosmos 2150 Rocket - Orbit

View from above orbital plane
View from above orbital plane
View from above satellite
View from above satellite

Ground track
Ground track

The orbit data is extracted from the following two-line orbital elements,

1 21419U 91041B   20018.39158847 -.00000045 +00000-0 -69666-5 0  9997
2 21419 074.0385 010.6261 0039686 066.3785 294.1525 14.33954037495688
Epoch (UTC): 18 January 2020 09:23:53
Eccentricity: 0.0039686
inclination: 74.0385°
perigee height: 750 km
apogee height: 807 km
right ascension of ascending node: 10.6261°
argument of perigee: 66.3785°
revolutions per day: 14.33954037
mean anomaly at epoch: 294.1525°
orbit number at epoch: 49568

The dashed part of the orbit path shows where the satellite is in the earth's shadow,  

DLR